Vorticity
7 7 7 7 7 7 8 8 8 8 8 9 9 9 8 8 8 8 8 8 8 8 8 8 8 8 8 8 7 7 7 7 7 7 7 6 6 7 7 7 7 8 8 8 8 8 8 8 7 6 6 4 3 3 3 3 4 6 9 12 12 10 9 10 17 23 26 24 18
7 7 7 7 7 7 7 8 8 8 8 9 9 9 8 8 8 8 8 8 8 8 8 8 8 8 8 8 8 8 8 7 7 7 7 7 7 7 7 7 8 8 8 8 8 9 8 8 8 7 6 5 4 3 3 3 3 5 7 10 11 11 10 8 12 18 24 27 22
7 7 7 8 8 8 8 8 8 8 8 8 8 8 8 8 8 8 8 8 8 8 8 8 9 9 9 9 9 8 8 8 7 7 7 7 7 7 7 7 8 8 8 8 8 9 9 8 8 7 7 6 5 4 3 3 3 4 5 7 10 11 11 10 9 13 19 26 26
7 7 7 8 8 8 8 7 7 7 8 8 8 8 8 8 8 8 8 8 8 8 8 8 8 9 9 9 9 8 8 8 7 7 7 7 7 7 7 7 8 8 8 8 8 9 9 8 8 7 7 6 5 5 4 3 3 3 4 6 8 10 11 11 9 10 13 20 25
7 7 7 7 7 7 7 7 7 7 7 7 8 8 8 8 8 8 8 8 8 8 8 8 8 8 8 8 8 8 8 8 8 7 7 7 7 7 7 7 7 8 8 8 8 9 9 8 8 8 7 6 6 5 4 4 3 3 4 4 6 8 10 12 10 10 10 13 20
7 7 7 7 7 7 7 7 7 7 7 7 7 8 8 8 8 8 8 8 8 8 8 8 8 8 8 8 8 8 8 8 8 7 7 7 7 7 7 7 7 7 8 8 8 9 9 9 8 8 7 7 6 6 5 4 4 4 3 4 5 6 8 11 11 10 9 9 14
6 6 6 7 7 7 7 7 7 7 7 7 7 8 8 8 8 8 8 8 8 8 8 8 8 8 8 8 8 8 8 8 8 7 7 7 7 7 7 7 7 7 8 8 8 8 9 9 9 8 8 7 7 6 6 5 4 4 4 3 4 5 6 9 11 11 10 9 10
6 6 6 6 6 6 6 6 7 7 7 7 7 7 7 8 8 8 8 8 8 8 8 8 8 8 8 8 8 8 8 8 8 8 8 7 7 7 7 7 7 7 7 8 8 8 8 9 9 8 8 8 7 7 6 5 5 4 4 4 4 4 5 7 9 11 11 11 10
6 6 6 6 6 6 6 6 7 7 7 7 7 7 7 7 8 8 8 8 8 8 8 8 8 8 8 8 8 8 8 8 8 8 8 8 8 7 7 7 7 7 7 7 8 8 8 8 9 9 8 8 7 7 6 6 5 5 4 4 4 4 4 5 7 9 10 12 11
7 7 6 7 7 7 7 7 7 7 7 7 7 7 7 7 7 7 8 8 8 7 7 7 7 7 7 7 8 8 8 8 8 8 8 8 8 8 7 7 7 7 7 7 7 8 8 8 8 9 9 8 8 7 7 6 6 6 5 5 4 4 4 4 5 7 9 10 12
7 7 7 7 7 7 7 7 7 7 7 7 7 7 7 7 7 7 7 7 7 7 7 7 7 7 7 7 7 7 8 8 8 8 9 9 9 8 8 8 7 7 7 7 7 7 7 8 8 8 8 8 8 8 7 7 6 6 6 5 5 4 4 4 4 5 6 8 10
8 8 8 7 7 7 7 8 8 7 7 7 7 7 7 7 7 7 7 7 7 7 7 6 6 6 6 7 7 7 8 8 8 8 9 9 9 9 8 8 8 8 7 7 7 7 7 7 8 8 8 8 8 8 8 7 7 7 6 6 5 5 4 4 4 4 5 6 8
8 8 8 8 8 8 8 8 8 8 8 8 7 7 7 7 7 6 6 7 7 7 7 6 6 6 6 6 7 7 7 8 8 8 8 9 9 8 8 8 8 8 8 8 7 7 7 7 7 7 8 8 8 8 8 8 8 7 7 6 6 5 5 5 4 4 4 5 6
8 8 8 8 8 8 8 8 8 8 8 8 8 7 7 7 7 6 6 6 7 7 7 6 6 6 6 6 6 7 7 7 8 8 8 8 8 8 8 8 8 8 9 9 8 8 7 7 7 7 7 7 8 8 8 8 8 8 7 7 6 6 6 5 5 4 4 5 5
9 9 8 8 8 8 8 8 8 8 8 8 8 8 7 7 7 6 6 6 7 7 7 7 6 6 6 6 6 6 6 7 7 8 8 8 8 8 8 8 8 9 9 9 9 8 8 8 7 7 7 7 7 8 8 8 8 8 8 8 7 7 6 6 5 4 4 4 5
9 9 9 8 8 8 8 8 8 8 8 8 8 8 7 7 7 7 6 6 6 7 7 7 7 7 6 6 6 6 6 6 7 7 7 8 8 8 8 8 8 9 9 9 9 9 9 8 8 8 8 7 7 7 7 8 8 8 8 8 8 8 7 6 6 5 4 4 4
9 9 9 8 8 8 8 8 8 8 8 8 8 7 7 7 7 7 6 6 6 7 7 7 7 7 7 7 6 6 6 6 6 7 7 7 7 8 8 8 8 8 9 9 9 9 9 9 9 8 8 8 8 8 7 7 8 8 8 9 9 8 8 8 7 6 5 4 4
9 9 8 8 8 8 8 8 8 8 8 8 8 8 8 7 7 7 7 6 6 7 7 7 7 7 7 7 7 6 6 6 6 6 6 7 7 7 8 8 8 8 9 9 9 9 9 10 9 9 9 9 9 8 8 8 8 8 8 8 9 9 9 8 8 7 6 5 4
8 8 8 8 8 8 8 8 8 8 8 8 8 8 8 8 8 8 7 7 7 7 7 7 7 7 7 7 7 6 6 6 6 6 6 6 7 7 7 7 8 8 8 9 9 9 9 9 9 9 9 9 10 9 9 8 8 8 8 8 8 9 9 9 9 8 7 6 6
7 7 7 7 7 7 7 7 7 8 8 8 8 8 8 8 8 8 8 8 7 7 7 7 7 7 7 7 7 7 6 6 6 6 6 6 7 7 7 7 7 8 8 8 8 8 8 9 9 9 9 9 9 10 10 10 9 9 8 8 8 8 9 9 9 9 8 8 7
6 6 6 6 6 7 7 7 7 7 7 7 8 8 8 8 8 8 8 8 8 7 7 7 7 7 7 7 7 7 6 6 6 6 6 6 6 6 6 6 7 7 7 7 7 7 7 8 8 8 8 8 8 9 9 10 10 10 9 9 9 9 8 9 9 9 9 9 8
6 6 6 6 6 6 6 6 6 6 7 7 7 7 7 8 8 8 8 8 8 7 7 7 7 7 7 7 7 6 6 6 6 6 6 6 6 6 6 6 6 6 6 6 6 6 6 6 7 7 7 8 8 8 8 9 9 10 10 10 10 10 9 9 9 9 9 9 9
6 6 6 6 6 6 6 6 6 6 6 6 7 7 7 7 7 7 7 7 7 7 7 7 6 6 6 6 6 6 6 6 6 6 6 6 6 6 6 6 5 5 5 5 5 5 5 5 5 6 6 6 7 7 7 7 8 8 9 10 10 10 10 10 9 9 9 9 8
6 6 6 6 6 6 6 6 6 6 6 6 6 6 7 7 7 7 7 7 7 7 7 6 6 6 6 6 6 6 6 6 6 6 6 6 6 6 5 5 4 4 4 4 4 3 4 4 4 4 5 5 6 6 6 6 6 7 7 8 9 10 10 10 10 10 9 9 8
7 7 7 7 6 6 6 6 6 6 6 6 6 6 6 6 6 6 6 6 6 6 6 6 6 6 5 5 5 5 5 5 5 5 5 5 5 4 4 4 4 3 3 3 3 3 2 2 3 3 4 4 4 5 5 5 6 6 6 6 7 8 9 10 10 10 10 10 9
7 7 7 7 7 7 7 7 7 7 7 7 6 6 6 6 6 6 6 6 6 6 6 6 5 5 5 5 5 5 5 5 5 5 4 4 4 4 3 3 3 3 2 2 2 2 2 2 2 2 3 3 3 4 4 5 5 5 5 5 6 6 7 8 9 10 10 10 10
8 8 8 8 8 8 8 8 8 7 7 7 7 7 6 6 6 6 6 6 6 6 6 5 5 5 5 5 5 4 4 4 4 4 4 3 3 3 2 2 2 2 2 2 2 2 2 2 2 2 2 2 2 3 3 4 4 5 5 5 5 5 6 7 8 9 9 10 10
8 8 8 8 9 9 9 8 8 8 8 8 7 7 7 6 6 6 6 6 6 6 5 5 5 5 4 4 4 4 4 4 4 3 3 2 2 2 2 2 2 2 2 2 2 2 2 2 2 2 2 2 2 2 3 3 4 4 4 5 5 5 5 5 6 7 8 8 9
8 8 8 9 9 9 9 9 9 9 8 8 8 7 7 7 7 6 6 6 6 5 5 5 4 4 4 4 4 3 3 3 3 3 2 2 2 2 1 1 1 2 2 2 2 2 2 2 2 2 3 3 3 3 2 3 3 4 4 5 5 5 5 5 6 6 6 7 8
8 8 8 8 9 9 9 9 9 8 8 8 8 7 7 7 6 6 6 5 5 5 4 4 4 4 3 3 3 3 2 2 2 2 2 2 2 2 1 1 1 2 2 2 2 2 2 2 2 2 3 3 3 3 3 3 3 4 4 5 5 6 6 6 6 6 6 6 7
7 7 7 7 7 7 7 7 7 7 7 6 6 6 6 6 5 5 5 4 4 4 3 3 3 3 2 2 2 2 2 2 2 2 2 2 2 2 2 2 2 2 2 2 2 2 2 2 2 3 3 3 4 4 4 4 4 4 5 5 6 6 6 6 6 6 6 6 7
5 5 4 4 4 4 4 4 4 4 4 4 4 4 4 4 4 4 3 3 3 2 2 2 2 2 2 2 2 2 2 2 2 2 2 3 3 2 2 2 2 2 2 2 2 2 2 2 3 3 3 4 4 4 5 5 5 6 6 6 6 7 7 7 7 7 7 7 7
1 1 0 0 1 1 2 2 2 2 3 3 3 3 3 3 3 3 3 3 2 2 2 2 2 2 2 2 2 3 3 3 3 3 3 3 3 3 3 3 3 3 3 3 3 3 4 4 4 4 4 4 5 5 6 6 6 7 7 8 8 8 8 8 8 8 8 8 8
-3 -3 -4 -4 -3 -2 -2 -1 0 1 2 2 2 3 3 3 3 3 4 4 3 3 3 3 3 3 3 3 3 3 4 4 4 3 3 3 3 3 3 3 3 3 4 4 4 5 5 5 6 6 6 6 6 6 7 7 7 8 8 9 9 10 10 10 10 10 9 9 8
-3 -3 -4 -4 -4 -4 -3 -2 -1 -0 0 1 2 2 3 3 3 4 4 4 4 4 4 4 4 4 4 4 4 3 3 3 3 3 3 3 2 2 3 3 3 3 4 4 5 6 6 6 7 7 7 8 8 8 8 8 8 8 9 9 10 10 11 11 11 11 10 10 10
1 0 -0 -0 -1 -1 -1 -0 -0 0 0 1 1 2 2 2 3 3 3 3 4 4 4 4 4 4 4 4 4 4 3 3 3 3 3 3 3 3 3 3 4 4 5 5 6 6 6 6 7 7 8 8 9 9 9 9 9 9 9 10 10 10 11 11 11 12 12 11 11
4 4 4 4 3 3 3 3 3 3 3 3 3 3 3 3 3 4 4 4 4 4 4 4 4 5 5 5 5 5 5 4 4 4 5 5 5 5 5 5 5 6 6 6 6 6 7 7 7 7 7 8 8 9 9 10 10 10 10 10 10 10 11 11 11 11 12 12 12
5 6 6 6 5 5 5 5 5 5 5 5 5 5 5 5 5 5 6 6 6 6 6 6 6 6 6 6 6 7 7 7 7 7 7 7 8 7 7 7 7 8 8 8 8 8 8 8 8 8 8 8 8 8 9 9 10 10 10 11 11 11 11 11 11 11 11 11 11
5 5 5 6 6 6 6 6 6 6 6 6 6 6 6 6 7 7 7 7 8 8 8 8 8 8 8 8 8 8 9 9 10 10 9 9 9 9 9 9 8 9 9 10 9 10 10 10 10 10 9 9 9 9 9 9 9 10 10 11 11 11 11 11 11 11 11 11 11
4 5 5 5 6 6 6 6 6 6 6 6 7 7 7 7 7 7 8 8 9 9 9 9 9 9 9 9 9 9 9 10 10 10 10 10 10 10 10 10 9 9 10 10 10 10 10 10 11 11 11 11 10 10 10 10 10 10 10 11 11 11 11 11 11 11 11 11 11
4 5 5 6 6 6 6 7 7 7 7 8 8 8 8 8 8 8 8 9 10 10 10 10 9 9 9 10 10 9 9 9 10 10 10 10 10 10 10 10 10 10 10 10 10 10 10 11 11 11 12 12 12 12 11 11 11 11 11 11 12 12 11 11 12 12 12 11 11
Height
5697 5697 5697 5697 5696 5696 5696 5695 5695 5695 5695 5694 5694 5693 5692 5692 5691 5690 5690 5690 5689 5688 5688 5687 5687 5686 5686 5685 5685 5685 5684 5684 5684 5683 5683 5683 5682 5682 5682 5681 5680 5680 5680 5679 5679 5678 5677 5676 5676 5675 5675 5674 5673 5673 5672 5671 5671 5671 5670 5670 5669 5668 5667 5666 5666 5666 5666 5666 5667
5694 5694 5693 5693 5693 5692 5692 5692 5692 5691 5691 5690 5690 5690 5689 5689 5688 5688 5687 5687 5686 5685 5685 5685 5684 5684 5683 5683 5683 5682 5682 5681 5681 5681 5681 5680 5680 5680 5680 5679 5679 5678 5678 5677 5677 5676 5676 5675 5675 5674 5673 5673 5672 5672 5671 5671 5670 5670 5670 5670 5669 5668 5668 5667 5666 5666 5666 5666 5667
5690 5690 5690 5690 5689 5689 5689 5688 5688 5688 5687 5687 5687 5686 5686 5685 5685 5685 5685 5684 5683 5683 5682 5682 5681 5681 5680 5680 5680 5680 5679 5679 5679 5679 5678 5678 5678 5678 5677 5677 5677 5676 5676 5675 5675 5675 5675 5674 5673 5673 5672 5672 5671 5671 5670 5670 5670 5670 5670 5670 5669 5668 5668 5667 5667 5666 5666 5666 5666
5687 5686 5686 5686 5685 5685 5685 5685 5684 5684 5684 5683 5683 5683 5682 5682 5682 5682 5681 5681 5680 5680 5680 5679 5679 5678 5678 5678 5677 5677 5677 5676 5676 5676 5676 5676 5676 5675 5675 5675 5675 5675 5674 5674 5673 5673 5673 5672 5672 5671 5671 5671 5670 5670 5670 5669 5669 5669 5669 5669 5669 5668 5668 5667 5667 5666 5666 5665 5666
5684 5683 5683 5682 5682 5682 5681 5681 5680 5680 5680 5680 5679 5679 5679 5679 5679 5678 5678 5678 5677 5677 5677 5676 5676 5675 5675 5675 5675 5674 5674 5674 5674 5674 5673 5673 5673 5673 5673 5673 5673 5672 5672 5672 5671 5671 5671 5670 5670 5670 5670 5669 5669 5669 5668 5668 5668 5667 5667 5668 5668 5668 5667 5667 5667 5666 5666 5665 5665
5680 5680 5679 5679 5678 5678 5678 5677 5677 5676 5676 5676 5676 5675 5675 5675 5675 5675 5675 5675 5674 5674 5674 5673 5673 5673 5672 5672 5672 5671 5671 5671 5671 5671 5671 5671 5670 5670 5670 5670 5670 5670 5670 5670 5670 5669 5669 5669 5669 5668 5668 5668 5667 5667 5667 5667 5666 5666 5666 5666 5666 5667 5667 5667 5666 5666 5666 5665 5665
5676 5676 5675 5675 5675 5674 5674 5674 5673 5673 5672 5672 5672 5672 5672 5672 5671 5671 5671 5671 5671 5670 5670 5670 5670 5670 5670 5669 5669 5669 5668 5668 5668 5668 5668 5668 5668 5668 5668 5668 5668 5668 5668 5667 5667 5667 5667 5667 5666 5666 5666 5666 5666 5666 5665 5665 5665 5665 5665 5665 5665 5665 5666 5666 5666 5665 5665 5665 5665
5673 5673 5672 5671 5671 5671 5670 5670 5670 5669 5669 5669 5669 5668 5668 5668 5668 5668 5667 5667 5667 5667 5667 5667 5667 5666 5666 5666 5666 5666 5665 5665 5665 5665 5665 5665 5665 5665 5665 5665 5665 5665 5665 5665 5665 5665 5665 5665 5665 5664 5664 5664 5664 5664 5664 5664 5664 5664 5664 5664 5663 5664 5664 5665 5665 5665 5665 5664 5664
5670 5669 5669 5668 5668 5667 5667 5666 5666 5665 5665 5665 5665 5665 5665 5665 5664 5664 5664 5664 5664 5664 5664 5663 5663 5663 5663 5663 5663 5663 5662 5662 5662 5662 5662 5662 5662 5662 5662 5662 5663 5663 5663 5663 5663 5662 5662 5662 5662 5662 5662 5662 5662 5662 5662 5662 5662 5662 5662 5662 5662 5662 5662 5663 5663 5664 5664 5663 5663
5666 5666 5665 5665 5664 5664 5663 5663 5662 5662 5662 5661 5661 5661 5661 5661 5660 5660 5660 5660 5660 5660 5660 5660 5660 5660 5660 5660 5660 5660 5659 5659 5659 5659 5659 5659 5659 5659 5659 5660 5660 5660 5660 5660 5660 5660 5660 5660 5660 5660 5660 5660 5660 5660 5660 5660 5660 5660 5660 5660 5660 5660 5660 5660 5661 5662 5662 5662 5662
5663 5662 5662 5661 5660 5660 5660 5659 5659 5659 5658 5658 5658 5658 5657 5657 5657 5656 5656 5656 5656 5656 5656 5656 5656 5656 5656 5656 5656 5656 5656 5656 5655 5655 5655 5655 5655 5656 5656 5656 5656 5657 5657 5657 5657 5657 5657 5657 5657 5657 5657 5657 5657 5657 5657 5658 5658 5658 5658 5658 5658 5658 5658 5658 5659 5659 5660 5660 5661
5660 5659 5658 5658 5657 5656 5656 5655 5655 5655 5655 5654 5654 5654 5654 5653 5653 5653 5652 5652 5652 5652 5652 5652 5652 5652 5652 5652 5652 5652 5652 5652 5652 5652 5652 5652 5652 5652 5652 5653 5653 5653 5654 5654 5654 5654 5654 5654 5655 5655 5655 5655 5655 5655 5655 5655 5655 5655 5655 5656 5656 5656 5656 5656 5656 5657 5657 5658 5659
5656 5655 5655 5654 5654 5653 5652 5652 5651 5651 5651 5650 5650 5650 5650 5650 5649 5649 5649 5648 5648 5648 5648 5648 5648 5648 5648 5648 5649 5649 5649 5649 5649 5649 5649 5649 5649 5649 5649 5649 5650 5650 5650 5650 5651 5651 5651 5651 5651 5652 5652 5652 5652 5652 5652 5652 5653 5653 5653 5653 5654 5654 5654 5654 5654 5654 5655 5655 5656
5652 5651 5651 5650 5650 5649 5649 5648 5648 5647 5647 5647 5646 5646 5646 5645 5645 5645 5645 5645 5644 5644 5644 5644 5644 5644 5644 5644 5645 5645 5645 5645 5645 5645 5645 5645 5645 5645 5645 5646 5646 5646 5646 5647 5647 5647 5648 5648 5648 5649 5649 5649 5649 5650 5650 5650 5650 5650 5650 5651 5651 5651 5651 5652 5652 5652 5652 5652 5653
5648 5648 5647 5646 5646 5645 5645 5644 5644 5643 5643 5643 5642 5642 5642 5641 5641 5641 5641 5640 5640 5640 5640 5640 5640 5640 5640 5640 5640 5640 5641 5641 5641 5641 5641 5641 5641 5642 5642 5642 5642 5642 5643 5643 5644 5644 5644 5645 5645 5645 5645 5646 5646 5646 5647 5647 5647 5647 5647 5648 5648 5648 5649 5649 5649 5649 5650 5650 5650
5644 5644 5643 5643 5642 5641 5641 5640 5640 5639 5639 5639 5638 5638 5638 5637 5637 5637 5637 5637 5636 5636 5636 5636 5636 5636 5636 5636 5636 5636 5636 5637 5637 5637 5637 5638 5638 5638 5638 5638 5638 5639 5639 5639 5640 5640 5640 5641 5641 5642 5642 5643 5643 5643 5644 5644 5644 5644 5644 5645 5645 5645 5645 5646 5646 5646 5647 5647 5647
5640 5640 5639 5639 5638 5637 5637 5636 5635 5635 5635 5634 5634 5634 5634 5633 5633 5633 5633 5633 5632 5632 5632 5632 5632 5632 5632 5632 5632 5632 5632 5632 5633 5633 5633 5634 5634 5634 5634 5634 5635 5635 5635 5635 5636 5636 5637 5637 5638 5638 5639 5639 5639 5640 5640 5640 5641 5641 5641 5641 5642 5642 5642 5643 5643 5643 5644 5644 5644
5635 5635 5635 5634 5634 5633 5633 5632 5631 5631 5630 5630 5630 5630 5630 5629 5629 5629 5629 5629 5628 5628 5628 5627 5627 5627 5627 5627 5628 5628 5628 5628 5628 5629 5629 5630 5630 5630 5630 5630 5630 5631 5631 5631 5632 5632 5633 5633 5634 5634 5635 5635 5635 5636 5636 5637 5637 5638 5638 5638 5639 5639 5639 5639 5640 5640 5640 5640 5641
5631 5630 5630 5630 5629 5629 5628 5628 5627 5627 5626 5626 5625 5625 5625 5625 5625 5625 5624 5624 5624 5624 5624 5623 5623 5623 5623 5623 5623 5623 5624 5624 5624 5624 5625 5625 5625 5626 5626 5626 5626 5627 5627 5627 5628 5628 5628 5629 5630 5630 5630 5631 5632 5632 5633 5633 5633 5634 5634 5635 5635 5635 5636 5636 5636 5636 5637 5637 5637
5626 5625 5625 5625 5625 5624 5624 5623 5623 5623 5622 5622 5621 5621 5621 5620 5620 5620 5620 5620 5620 5620 5620 5619 5619 5619 5619 5619 5619 5619 5619 5619 5620 5620 5620 5620 5621 5621 5622 5622 5622 5623 5623 5623 5624 5624 5624 5625 5625 5626 5626 5627 5628 5628 5629 5629 5630 5630 5630 5631 5631 5632 5632 5632 5633 5633 5633 5634 5634
5621 5621 5620 5620 5620 5620 5619 5619 5619 5618 5618 5617 5617 5617 5616 5616 5616 5616 5615 5615 5615 5615 5615 5615 5615 5615 5615 5615 5615 5615 5615 5615 5615 5615 5615 5616 5616 5616 5617 5617 5618 5618 5619 5619 5619 5620 5620 5620 5621 5621 5622 5623 5623 5624 5625 5625 5625 5626 5626 5627 5627 5628 5628 5629 5629 5630 5630 5630 5630
5617 5617 5616 5615 5615 5615 5615 5614 5614 5614 5613 5613 5613 5612 5612 5612 5612 5611 5611 5611 5611 5610 5610 5610 5610 5611 5611 5611 5611 5610 5610 5610 5610 5611 5611 5611 5611 5612 5612 5613 5613 5613 5614 5615 5615 5615 5616 5616 5616 5617 5617 5618 5619 5620 5620 5621 5621 5622 5622 5623 5623 5624 5624 5625 5625 5626 5626 5626 5627
5613 5612 5611 5611 5611 5610 5610 5609 5609 5609 5609 5608 5608 5608 5608 5607 5607 5607 5607 5606 5606 5606 5606 5606 5606 5606 5606 5606 5606 5606 5606 5606 5606 5606 5607 5607 5607 5607 5608 5608 5608 5609 5609 5610 5610 5611 5611 5612 5612 5613 5613 5613 5614 5615 5615 5616 5617 5617 5618 5619 5619 5619 5620 5620 5621 5622 5622 5623 5623
5608 5607 5607 5606 5606 5605 5605 5605 5604 5604 5604 5603 5603 5603 5603 5602 5602 5602 5602 5602 5601 5601 5601 5601 5601 5601 5601 5601 5601 5602 5602 5602 5602 5602 5602 5602 5603 5603 5603 5603 5604 5604 5604 5605 5605 5606 5607 5607 5608 5608 5609 5609 5610 5610 5610 5611 5612 5613 5614 5614 5615 5615 5615 5616 5616 5617 5618 5619 5619
5603 5603 5602 5602 5601 5601 5600 5600 5600 5599 5599 5598 5598 5598 5598 5597 5597 5597 5597 5597 5596 5596 5596 5596 5596 5596 5596 5596 5596 5597 5597 5597 5597 5598 5598 5598 5598 5598 5598 5599 5599 5599 5599 5600 5600 5601 5602 5602 5603 5604 5604 5605 5605 5605 5606 5606 5607 5608 5609 5610 5610 5610 5611 5611 5612 5612 5613 5614 5615
5598 5598 5597 5597 5596 5596 5595 5595 5595 5594 5594 5593 5593 5593 5592 5592 5592 5592 5592 5591 5591 5591 5591 5591 5591 5591 5591 5591 5591 5591 5592 5592 5592 5593 5593 5593 5593 5594 5594 5594 5594 5594 5594 5595 5595 5595 5596 5597 5598 5599 5600 5600 5600 5601 5601 5601 5602 5603 5603 5604 5605 5606 5606 5607 5607 5607 5608 5609 5610
5593 5593 5592 5592 5591 5591 5590 5590 5590 5589 5589 5588 5588 5587 5587 5587 5586 5586 5586 5586 5586 5586 5586 5586 5586 5586 5586 5586 5586 5586 5586 5587 5587 5587 5588 5588 5589 5589 5589 5589 5589 5589 5589 5590 5590 5590 5591 5591 5592 5593 5594 5595 5596 5596 5597 5597 5597 5597 5598 5599 5600 5600 5601 5602 5602 5603 5603 5603 5604
5588 5587 5587 5586 5586 5586 5585 5585 5585 5584 5584 5583 5583 5582 5582 5581 5581 5581 5581 5581 5580 5580 5580 5580 5580 5580 5580 5580 5580 5580 5581 5581 5581 5582 5582 5583 5583 5583 5584 5584 5584 5584 5584 5584 5585 5585 5585 5586 5586 5587 5588 5589 5590 5591 5592 5592 5592 5593 5593 5593 5594 5595 5595 5596 5597 5598 5598 5598 5599
5582 5582 5582 5581 5581 5580 5580 5580 5580 5579 5579 5578 5578 5577 5577 5576 5576 5576 5575 5575 5575 5575 5575 5575 5575 5575 5575 5575 5575 5575 5575 5575 5575 5576 5576 5577 5577 5578 5578 5578 5578 5578 5579 5579 5579 5579 5580 5580 5581 5581 5582 5583 5584 5585 5586 5587 5587 5588 5588 5588 5588 5589 5590 5590 5591 5592 5593 5593 5593
5577 5577 5576 5576 5575 5575 5575 5575 5574 5574 5574 5573 5573 5572 5572 5571 5571 5571 5570 5570 5570 5570 5570 5569 5569 5569 5569 5569 5569 5569 5569 5569 5569 5570 5570 5571 5571 5571 5572 5572 5572 5572 5572 5573 5573 5574 5574 5574 5575 5575 5576 5576 5577 5578 5580 5581 5582 5582 5582 5583 5583 5583 5583 5584 5585 5586 5587 5587 5588
5571 5571 5571 5570 5570 5570 5569 5569 5569 5568 5568 5568 5567 5567 5566 5566 5566 5565 5565 5565 5565 5564 5564 5564 5564 5563 5563 5563 5563 5563 5563 5563 5563 5564 5564 5564 5565 5565 5565 5566 5566 5566 5566 5566 5567 5567 5568 5568 5569 5569 5569 5570 5571 5572 5573 5574 5575 5576 5577 5577 5577 5577 5577 5578 5578 5579 5580 5581 5582
5566 5566 5565 5565 5565 5564 5564 5563 5563 5563 5562 5562 5562 5561 5561 5560 5560 5560 5559 5559 5559 5559 5558 5558 5558 5558 5557 5557 5557 5557 5557 5557 5557 5557 5557 5558 5558 5559 5559 5559 5559 5559 5560 5560 5560 5560 5561 5561 5562 5562 5563 5563 5564 5565 5566 5567 5568 5569 5570 5571 5571 5571 5571 5572 5572 5573 5573 5574 5575
5561 5560 5560 5560 5559 5558 5558 5557 5557 5557 5557 5556 5556 5555 5555 5555 5554 5554 5553 5553 5553 5553 5552 5552 5552 5551 5551 5551 5551 5551 5551 5551 5551 5551 5551 5551 5551 5552 5552 5552 5552 5552 5552 5553 5553 5554 5554 5555 5555 5555 5556 5556 5557 5558 5559 5560 5561 5562 5563 5564 5565 5565 5565 5565 5566 5566 5566 5567 5568
5555 5554 5554 5553 5553 5552 5552 5551 5551 5550 5550 5550 5549 5549 5548 5548 5548 5547 5547 5546 5546 5546 5546 5545 5545 5545 5545 5545 5545 5545 5545 5545 5544 5544 5544 5544 5544 5545 5545 5545 5545 5545 5545 5545 5545 5546 5546 5547 5548 5548 5549 5549 5550 5551 5552 5552 5553 5554 5555 5556 5557 5558 5559 5559 5559 5560 5560 5560 5561
5548 5547 5547 5546 5546 5545 5545 5544 5544 5544 5544 5543 5543 5542 5541 5541 5541 5540 5540 5539 5539 5539 5539 5538 5538 5538 5537 5537 5537 5537 5538 5537 5537 5537 5537 5537 5537 5538 5538 5538 5538 5538 5537 5537 5537 5538 5538 5539 5539 5540 5540 5541 5542 5543 5544 5545 5546 5547 5548 5549 5550 5550 5551 5552 5552 5553 5553 5554 5554
5540 5539 5539 5538 5538 5537 5537 5536 5536 5536 5536 5535 5535 5535 5534 5533 5533 5532 5532 5531 5531 5531 5531 5530 5530 5530 5530 5529 5529 5530 5530 5530 5529 5529 5529 5529 5529 5530 5530 5530 5530 5530 5530 5529 5529 5529 5530 5530 5531 5531 5532 5533 5534 5535 5536 5537 5538 5539 5540 5541 5542 5542 5543 5544 5544 5545 5546 5546 5547
5530 5530 5530 5530 5529 5528 5528 5528 5527 5527 5527 5527 5526 5526 5525 5525 5524 5523 5523 5523 5523 5523 5522 5522 5521 5521 5520 5520 5520 5520 5520 5520 5520 5520 5520 5520 5520 5521 5521 5522 5523 5523 5522 5521 5521 5521 5521 5522 5522 5522 5523 5524 5525 5526 5528 5529 5530 5531 5532 5533 5534 5535 5535 5535 5536 5537 5538 5539 5540
5521 5521 5520 5520 5520 5519 5519 5518 5518 5518 5517 5517 5517 5516 5516 5515 5515 5514 5513 5513 5513 5513 5513 5512 5512 5512 5511 5510 5511 5511 5510 5510 5510 5510 5510 5510 5510 5511 5512 5513 5513 5513 5513 5513 5513 5512 5513 5513 5513 5514 5514 5515 5516 5517 5518 5520 5521 5523 5524 5525 5526 5526 5527 5527 5528 5529 5530 5531 5532
5513 5512 5512 5511 5510 5510 5510 5509 5509 5508 5508 5507 5507 5506 5506 5505 5505 5504 5503 5503 5503 5503 5502 5502 5502 5501 5501 5500 5501 5501 5501 5500 5500 5500 5500 5500 5500 5500 5501 5502 5503 5503 5503 5504 5503 5503 5503 5504 5504 5505 5505 5505 5506 5507 5509 5510 5512 5514 5515 5517 5518 5518 5519 5519 5520 5520 5521 5522 5523
5505 5504 5504 5503 5502 5502 5501 5500 5500 5499 5499 5498 5498 5497 5496 5496 5495 5495 5494 5493 5492 5492 5492 5492 5492 5491 5491 5490 5490 5491 5490 5490 5490 5490 5489 5489 5489 5490 5490 5491 5492 5492 5493 5493 5493 5493 5493 5494 5494 5495 5495 5495 5496 5497 5499 5500 5502 5504 5506 5507 5509 5510 5510 5511 5511 5512 5513 5514 5515
5497 5497 5496 5495 5494 5493 5493 5492 5491 5490 5490 5490 5489 5488 5487 5486 5486 5485 5485 5483 5483 5482 5482 5482 5482 5481 5481 5481 5481 5481 5481 5480 5480 5480 5479 5479 5479 5479 5480 5480 5481 5482 5482 5482 5483 5483 5483 5483 5483 5484 5485 5485 5485 5487 5488 5490 5492 5494 5495 5497 5499 5500 5501 5502 5503 5504 5505 5505 5506